Tracking 23114 objects as of 15-May-2021
HD Live streaming from Space Station
objects crossing your sky now

BREEZE-M R/B

Track BREEZE-M R/B now!


NORAD ID: 32375
Int'l Code: 2007-058C
Perigee: 33,699.7 km
Apogee: 35,634.6 km
Inclination: 8.9 °
Period: 1,378.9 minutes
Semi major axis: 41038 km
RCS: 2.4245 m2 (large)
Launch date: December 9, 2007
Source: Commonwealth of Independent States (former USSR) (CIS)
Launch site: TYURATAM MISSILE AND SPACE COMPLEX (TTMTR)

Note: This is a ROCKET BODY
aabbcc
Your satellite tracking list
Your tracking list is empty




NASA's NSSDC Master Catalog

Two Line Element Set (TLE):
1 32375U 07058C   21133.95118907 -.00000112  00000-0  00000-0 0  9995
2 32375   8.9192  38.3174 0235745 170.0071  28.0583  1.04429190 51045
Source of the keplerian elements: AFSPC